Location: Double Diamond Ranch
(30.2800°N, 103.5900°W)
Time: 15:58:19
(UTC-06:00)

ISS - Visible Passes

Search period start: 23 January 2018 00:00
Search period end: 02 February 2018 00:00
Orbit: 402 x 407 km, 51.6° (Epoch: 23 January)

Date Brightness Start Highest point End Pass type
(mag) Time Alt. Az. Time Alt. Az. Time Alt. Az.
23 Jan -2.6 18:58:42 10° S 19:01:30 27° SE 19:03:52 13° ENE visible
23 Jan -0.8 20:35:34 10° W 20:36:33 15° WNW 20:36:33 15° WNW visible
24 Jan -2.6 19:42:30 10° WSW 19:45:32 36° NW 19:46:50 25° N visible
25 Jan -3.8 18:49:57 10° SW 18:53:12 87° NW 18:56:27 10° NE visible
26 Jan -1.2 19:35:29 10° WNW 19:37:29 15° NW 19:39:30 10° N visible
